Погода в Тонон-ле-Бене

Франция     46˚22′17″N   6˚29′05″E
темп.,
°C
ветер,
м/с
пор.,
м/с
влажн.,
%
обл.,
%
осадки,
мм/ч
давл.,
гПа
погр.,
м
17 января, вс
вс1701:00−3˚ю2495100 1.1 1022181
04:00−1˚ююз2399100 4.5 1019126
07:00−1˚юз2299100 5.5 102077
10:00ююз2499100 0.4 1020220
13:00зюз23100100 1.9 1020208
16:00зсз22100100 2.6 1022167
19:00−1˚зсз1299100 5.6 1026175
22:00−1˚с1199100 1.4 102881
18 января, пн
пн1801:00−2˚с119899 1.6 102984
04:00−2˚всв119699 0.1 102954
07:00−3˚всв129595 0.2 103058
10:00−2˚в0195100 0.2 1030158
13:00ссз119793 0.3 1028314
16:00−1˚с119586 0.1 1028185
19:00−4˚юв129093 0.1 102944
22:00−5˚юв228599 0.0 102937
19 января, вт
вт1901:00−5˚юв227871 0.0 102836
04:00−5˚юв227675 0.0 102637
07:00−4˚ююв227685 0.0 102541
10:00ююв228068 0.0 102460
13:00+3˚ю229581 0.0 102287
16:00+2˚ю238992 0.0 102053
19:00−1˚юв337152 0.0 102142
22:00−2˚юв337337 0.0 102043
20 января, ср
ср2001:00−1˚юв337440 0.0 101944
04:00−2˚ююв227438 0.0 101740
07:00−2˚юв227320 0.0 101636
10:00+1˚юв227842 0.0 101445
13:00+3˚ююв119471 0.0 101251
16:00+3˚юв119436 0.0 100937
19:00−1˚юв227545 0.0 101034
22:00−2˚юв2276100 0.0 100936
21 января, чт
чт2101:00юв2283100 0.1 100856
04:00ююв2384100 0.1 100863
07:00юв228098 0.1 100844
10:00+2˚ююв238583 0.0 100781
13:00+4˚ю349383 0.0 1006132
16:00+3˚ю489692 1.3 1005389
19:00+2˚юв349496 1.6 1005113
22:00+2˚ююв2289100 0.0 100345